Voltar ao catálogo

SL-8 DEB

AtivoPO
NORAD 29285·DEBRIS·🇷🇺 Russia

Lançado Dec 17, 1981 de Plesetsk Cosmodrome

Loading…

Próximas Passagens (próximas 24 horas)

TLE

AtualizadoSource: Space-Track

Época: Sep 13, 2026, 18:22 UTC

1 29285U 81120P   26256.76554560  .00000024  00000-0  15592-3 0  9998
2 29285  82.9514 257.1835 0046279 271.4873 266.0233 12.13436923587015

Acompanhe SL-8 DEB em tempo real com AllMySat

Download on the App Store